Theta_e
294 290 288 287 291 293 291 292 293 290 288 287 286 285 284 286 286 287 288 290 290 290 288 289 289 289 291 292 294 290 290 290 291 291 292 291 292 292 291 291 290 290 290 291 291 291 292 293 295 298 302 302 302 300 301 300 300 300 300 299 298 299 299 298 297 297 296 295 294 293 293 291 291 291 292 291 291 291 291 291 292 292 292 292 293 293
295 289 289 292 294 293 293 292 290 288 290 291 286 286 287 284 287 288 292 291 288 290 285 286 287 288 290 292 293 290 288 290 291 292 292 292 292 292 292 291 290 290 290 290 290 291 291 293 298 300 301 301 300 300 300 299 300 300 300 299 299 299 299 299 298 297 296 295 294 292 291 290 290 290 290 289 289 289 290 290 290 290 290 290 290 291
290 289 292 294 292 291 291 290 289 290 289 288 288 285 286 286 286 290 290 290 289 290 288 287 288 290 291 292 292 291 291 293 293 293 294 293 292 292 292 291 290 289 290 290 291 290 291 294 298 300 301 301 301 300 300 300 300 300 299 299 299 298 297 297 296 295 293 293 293 292 291 290 288 289 289 288 288 289 288 289 289 290 289 289 288 289
288 288 293 293 291 292 291 289 289 290 289 287 286 286 286 285 288 286 287 288 291 290 286 286 287 290 290 291 293 294 294 293 292 292 293 293 293 292 292 292 291 290 290 290 291 291 291 294 298 299 300 300 299 298 298 298 298 298 298 297 296 296 295 294 293 293 292 291 291 290 290 290 289 288 289 288 288 288 288 288 288 288 288 287 286 285
291 291 293 293 292 293 291 287 288 287 288 285 288 286 285 286 287 289 287 289 288 290 287 289 289 291 291 292 293 296 291 291 293 291 291 291 292 292 292 292 292 291 290 290 290 290 291 293 297 298 300 299 298 297 297 297 297 297 297 297 296 295 294 293 292 291 290 289 289 289 289 288 287 288 287 287 286 287 287 286 286 285 285 285 285 284
291 292 290 291 290 290 290 288 289 290 286 286 286 290 290 289 289 287 286 290 284 284 285 288 283 281 280 285 290 294 289 292 290 291 293 292 290 291 291 292 290 291 291 291 291 291 291 294 296 298 299 298 298 297 296 296 297 297 297 296 295 294 293 292 291 290 290 289 288 287 287 286 285 285 286 285 285 284 284 283 283 283 283 283 284 283
291 292 293 291 290 289 290 290 288 291 289 286 287 289 291 290 288 287 287 287 281 281 285 286 285 282 281 287 288 288 288 291 292 288 291 289 289 290 291 291 290 290 290 290 291 291 290 293 295 297 298 298 298 297 297 296 296 295 295 295 294 293 292 292 291 291 290 289 289 289 289 288 287 285 284 284 284 283 282 283 282 282 282 282 283 282
291 291 290 289 289 288 288 288 290 292 289 284 286 286 289 288 287 287 286 288 284 282 285 284 281 282 286 289 292 293 290 291 291 292 291 289 288 289 290 290 290 290 290 290 290 290 291 292 295 297 298 298 297 296 296 296 295 294 293 293 292 291 291 291 291 290 290 289 289 288 287 287 285 285 283 283 282 282 282 281 281 281 281 282 282 282
292 289 289 289 288 287 289 289 289 293 289 286 288 287 287 289 287 285 287 283 284 283 282 285 285 284 283 284 286 287 288 290 292 294 295 290 288 289 289 289 289 290 290 290 290 290 291 291 294 297 297 297 297 296 295 295 294 294 293 292 292 291 290 290 290 290 289 288 288 287 286 284 284 283 283 283 284 282 281 281 280 281 280 281 281 281
291 291 292 294 292 289 287 287 289 293 290 288 287 287 286 285 283 281 282 286 281 280 281 284 285 282 286 283 288 283 287 290 292 295 292 289 289 289 289 289 289 289 289 290 291 291 291 291 293 296 297 295 296 296 296 295 294 294 293 292 291 290 290 290 289 288 287 287 286 285 284 283 282 283 282 282 281 280 280 280 279 280 280 280 280 281
292 293 292 293 291 291 287 287 286 291 290 290 288 289 287 283 281 279 280 280 281 280 284 285 286 286 282 285 287 287 288 291 292 289 286 287 288 288 289 289 289 288 288 289 289 290 290 290 291 292 294 294 295 295 294 293 293 293 293 291 290 290 290 289 287 285 284 284 284 284 283 283 282 282 281 280 280 279 279 279 279 279 279 279 279 280
291 290 292 290 290 288 290 289 287 287 289 292 287 283 286 285 279 278 276 277 276 279 281 285 286 287 282 281 283 289 287 287 289 289 287 287 288 289 288 288 288 288 288 288 289 288 288 287 288 290 292 292 293 293 293 292 292 292 291 290 289 288 287 286 286 285 283 283 283 283 283 283 283 282 281 280 280 279 279 279 279 278 279 279 279 279
287 288 287 290 291 293 287 289 287 287 289 288 287 289 284 276 272 275 272 277 277 280 280 280 284 282 285 289 285 287 290 290 288 290 291 289 288 289 288 288 288 288 287 288 288 288 287 288 288 288 291 292 292 292 292 292 292 292 291 290 289 287 287 286 285 284 283 282 282 283 283 283 283 282 281 281 280 279 279 279 279 279 278 278 279 278
286 283 287 289 291 291 294 290 284 285 288 287 289 285 283 274 275 274 271 270 270 276 278 279 282 283 283 287 292 296 298 293 290 289 288 289 289 289 289 288 287 287 287 288 288 288 288 288 288 288 290 290 291 292 292 292 291 291 291 290 288 287 286 285 284 283 282 282 282 282 283 282 282 281 281 280 280 279 279 279 279 279 279 279 279 279
279 282 288 290 289 291 294 295 294 289 288 290 288 291 287 283 276 274 274 276 278 276 275 277 279 277 279 285 287 287 285 283 283 285 285 286 287 289 289 288 286 286 286 287 287 287 288 288 288 288 288 288 289 291 291 291 291 290 290 288 287 285 284 284 283 283 282 282 282 282 282 282 281 281 281 280 280 280 279 279 279 279 278 279 278 279
286 285 284 292 289 292 293 292 289 287 287 285 285 285 282 285 281 283 273 272 272 271 271 273 280 280 284 284 286 284 284 285 283 285 285 285 285 286 287 287 286 286 287 287 287 287 287 288 287 288 288 287 287 289 290 291 290 290 289 287 286 285 284 283 283 283 283 282 282 282 282 281 281 282 280 280 281 279 279 279 279 278 278 278 278 279
283 282 285 287 289 291 293 290 291 292 287 285 287 285 286 285 287 278 275 277 274 273 279 275 279 281 284 290 293 293 287 287 284 284 284 284 284 285 287 287 286 287 287 286 287 287 287 286 286 287 287 287 287 287 288 289 290 290 289 287 285 284 283 283 283 283 283 282 282 282 281 281 280 280 280 280 279 279 278 278 278 278 278 278 279 279
285 282 286 286 288 288 287 287 287 288 289 287 283 287 287 288 286 284 281 278 275 277 279 279 282 282 280 283 281 285 286 288 285 285 284 283 282 284 286 286 287 287 287 287 287 286 286 286 286 286 287 287 287 287 286 287 287 288 288 287 286 284 283 283 283 283 283 283 282 282 281 280 281 280 280 279 279 278 278 278 278 278 278 278 279 279
289 284 284 284 285 287 287 290 290 288 289 288 286 289 290 283 281 282 281 280 277 278 279 277 277 281 284 285 284 286 286 289 289 285 283 284 283 284 286 286 286 286 286 285 285 285 285 285 286 286 286 286 286 286 286 286 286 286 286 286 286 285 284 284 284 283 283 283 283 283 282 281 280 279 279 278 278 278 278 278 278 278 278 278 278 278
289 286 283 285 285 286 287 288 285 285 289 288 289 288 285 285 279 280 286 278 279 276 271 278 274 281 283 284 286 290 289 289 290 284 286 287 286 286 286 286 286 286 286 286 286 286 285 285 285 285 285 285 285 285 285 285 285 285 285 285 284 284 284 284 284 283 283 283 283 282 281 281 280 280 279 279 278 278 278 278 279 278 278 278 278 277
287 286 279 282 285 286 284 286 286 288 286 284 286 284 286 284 285 283 281 281 280 271 270 274 277 278 280 286 288 292 292 290 290 289 289 289 287 286 287 287 287 286 286 286 286 286 285 284 284 284 284 285 284 284 284 284 284 285 285 285 285 284 284 284 284 283 283 283 283 282 281 281 280 279 279 278 278 278 278 278 279 278 278 278 277 277
288 285 284 282 282 283 284 284 290 291 292 290 290 287 290 285 284 282 281 281 275 276 276 268 278 281 283 284 290 291 292 292 291 291 292 290 288 287 287 287 287 287 287 287 286 286 285 284 283 283 283 283 284 284 284 284 284 284 284 285 284 284 284 283 283 283 283 283 283 282 281 280 280 279 279 278 278 278 278 278 278 278 278 278 277 277
294 285 283 279 282 286 285 286 285 285 287 286 288 287 292 291 289 286 281 281 276 280 275 272 270 283 285 284 285 288 285 284 286 288 289 288 287 288 288 288 288 288 287 287 286 285 285 284 283 283 283 283 284 285 284 284 284 285 284 284 284 284 283 284 283 283 283 282 282 281 281 280 279 279 278 278 278 278 278 278 278 278 278 278 277 277
293 288 287 283 284 282 284 285 285 286 287 287 287 283 288 288 290 289 286 282 283 277 279 274 276 281 285 281 281 278 279 280 281 282 287 287 286 288 287 287 287 287 286 285 285 284 284 283 282 282 282 283 283 284 284 284 284 284 284 284 284 284 283 283 283 282 282 282 281 281 280 280 279 279 278 278 278 278 278 278 278 278 278 277 277 277
290 287 288 280 278 282 284 287 287 287 287 283 286 288 289 289 289 285 283 280 278 280 283 281 279 281 285 282 282 282 282 285 287 285 284 287 286 287 288 287 286 286 285 285 285 284 283 282 282 282 283 283 284 284 284 284 284 284 284 284 284 284 283 283 282 282 282 281 281 280 280 279 279 278 278 278 278 278 278 278 277 277 277 277 277 277
292 289 288 284 281 278 277 278 281 282 284 284 281 285 287 289 289 285 284 281 281 282 284 282 284 287 285 283 286 284 282 286 286 284 284 286 288 288 288 288 286 286 286 285 284 283 283 283 282 282 282 283 283 284 284 284 284 284 284 283 284 284 283 283 282 282 281 281 281 280 280 279 279 278 278 278 278 278 278 277 277 277 277 277 278 277
288 288 291 290 287 285 287 287 288 289 286 284 285 287 288 289 291 290 288 285 283 282 284 287 288 287 287 287 285 286 281 286 289 286 287 287 286 287 287 288 287 287 286 285 284 284 282 282 282 282 282 283 283 283 284 284 284 283 283 283 283 283 283 282 281 281 281 281 281 280 280 279 279 279 278 278 278 277 277 277 277 277 277 277 277 277
286 288 290 290 290 291 285 284 289 291 287 288 286 286 288 288 289 288 287 285 287 284 282 288 287 287 290 291 289 285 286 284 285 286 287 287 287 288 288 287 288 284 284 284 284 283 283 283 282 282 282 282 282 283 283 283 284 283 283 283 282 282 282 282 281 281 281 280 280 280 280 280 279 279 279 278 277 277 277 277 277 277 276 277 277 277
289 288 290 289 289 290 281 285 288 290 290 289 288 287 287 288 287 286 287 289 288 286 285 287 288 288 290 292 291 289 290 291 291 290 290 288 288 286 286 286 286 286 285 284 285 284 283 283 283 282 282 282 282 282 282 283 282 282 282 283 282 282 282 282 281 281 281 280 280 281 280 280 279 278 278 277 277 277 277 277 277 277 276 277 277 277
290 289 289 289 289 289 287 285 286 288 288 288 287 288 288 288 287 288 288 290 289 288 290 289 286 288 292 291 290 292 292 292 289 286 287 287 287 287 287 287 287 287 285 285 285 284 284 285 284 282 282 282 282 282 282 282 282 282 282 282 282 282 282 282 281 281 281 280 281 281 280 279 279 278 277 277 277 278 277 277 276 276 276 276 276 275
292 290 291 287 287 288 289 287 286 287 287 287 287 287 287 288 288 288 289 289 290 289 291 289 288 289 290 291 292 291 289 287 286 286 288 289 287 286 287 287 288 287 286 286 286 286 286 286 285 284 282 282 282 282 282 283 283 282 282 282 282 282 282 282 282 281 281 281 281 280 279 279 278 278 278 278 278 277 277 277 276 276 276 275 275 274
290 286 287 287 286 287 287 287 286 286 286 286 287 287 286 286 285 287 287 290 288 287 288 288 287 288 289 291 291 286 285 287 289 289 288 288 287 286 287 287 287 287 287 287 287 287 286 285 285 284 284 284 283 283 283 283 282 282 283 283 282 283 283 282 282 281 281 281 280 280 279 279 279 278 278 277 277 277 276 276 275 275 275 274 274 274
289 288 286 287 285 286 286 287 286 285 285 284 286 289 288 287 289 289 290 291 291 291 287 286 287 293 294 288 289 285 287 287 288 288 288 287 286 287 287 288 288 288 289 289 288 287 287 286 286 285 285 285 284 284 284 284 283 283 283 283 283 282 282 282 282 282 281 281 280 279 279 279 278 278 277 277 277 276 275 275 275 274 274 274 274 273
288 288 287 289 284 286 286 286 286 283 277 281 292 295 293 288 287 286 287 289 291 292 290 293 293 294 288 287 290 290 286 288 290 291 292 292 290 287 287 287 289 290 290 290 289 288 288 287 287 286 286 286 285 285 285 284 284 284 284 284 283 282 282 282 282 282 281 281 280 280 279 279 278 278 277 276 276 275 274 274 274 274 273 273 272 272
288 288 287 287 285 285 285 285 281 277 280 289 287 293 295 294 291 289 291 291 291 291 292 292 292 293 292 290 291 292 291 291 291 291 290 288 289 289 289 289 289 289 289 288 288 288 288 288 287 287 286 286 285 285 284 283 284 284 283 283 282 282 282 281 281 281 281 281 280 280 279 279 278 277 277 276 275 274 274 274 273 273 272 272 272 272
287 286 286 284 286 285 282 283 277 279 287 288 286 285 289 293 292 290 288 291 291 292 292 291 293 294 294 291 289 290 291 291 289 287 287 288 292 292 290 289 289 288 288 289 289 289 288 288 288 288 287 287 285 284 284 283 283 283 283 282 282 282 282 281 281 281 281 281 280 279 279 278 278 277 276 275 274 273 273 272 272 272 271 271 270 269
290 288 286 284 287 281 281 283 283 287 286 288 285 284 290 287 287 287 284 287 292 292 292 291 292 293 293 293 290 288 285 286 287 288 285 289 290 290 291 290 290 290 290 291 291 291 290 290 289 289 287 286 285 284 283 283 283 282 281 281 282 282 281 281 281 281 281 281 280 279 279 278 278 277 275 274 273 272 272 272 270 270 270 270 271 271
293 287 287 285 283 286 282 280 281 281 280 286 287 286 291 292 293 292 289 287 291 292 293 292 291 292 292 292 289 283 285 286 286 288 288 287 287 287 285 287 289 289 289 288 288 287 288 288 287 287 287 285 284 284 283 282 282 282 281 281 281 281 281 281 281 281 281 280 280 279 278 278 277 276 275 273 273 272 273 272 270 270 270 271 270 270
289 291 288 286 285 283 282 280 280 279 282 288 285 287 289 287 291 289 286 284 289 289 290 291 291 292 291 291 286 285 286 286 288 290 289 288 284 285 285 285 286 287 288 288 288 287 287 287 287 286 285 285 284 283 282 281 281 281 280 280 280 281 280 280 281 281 281 281 280 279 278 277 276 276 274 273 273 273 272 272 272 272 271 270 271 272
286 285 285 283 283 284 283 281 280 284 284 284 283 282 284 287 291 289 278 281 286 288 290 290 291 292 291 290 287 288 288 286 289 289 288 286 285 286 287 286 285 285 285 285 285 286 286 284 284 284 284 284 284 282 281 280 281 280 280 279 279 280 280 281 281 281 280 279 278 277 276 276 275 275 274 274 273 273 273 272 271 271 271 270 271 271
282 283 284 281 283 284 284 283 284 285 287 285 283 281 284 290 290 282 278 287 287 288 288 291 291 292 292 288 287 287 291 290 289 290 288 285 284 283 284 285 286 287 286 285 284 284 284 284 285 285 284 283 281 280 280 280 280 279 278 278 278 279 280 280 279 278 278 278 276 276 275 275 275 275 275 275 274 274 272 272 272 271 270 270 270 270
283 284 283 285 283 282 284 282 283 286 288 285 283 287 289 289 278 280 284 278 283 283 284 287 290 291 290 289 289 291 286 281 283 283 284 286 287 284 283 283 283 282 281 283 283 284 283 282 281 280 278 277 278 278 279 279 279 278 277 277 278 280 278 277 277 276 276 276 276 275 275 274 274 275 275 274 273 272 272 271 271 271 270 270 269 269
284 282 280 282 284 284 283 282 281 278 287 285 286 285 285 285 284 283 280 278 278 279 284 284 287 286 288 286 284 280 280 281 282 283 283 284 283 283 283 284 285 284 284 283 282 281 283 282 280 279 277 275 276 278 278 279 277 276 275 276 278 277 276 276 275 276 276 276 275 275 275 275 274 274 274 273 273 272 272 270 270 270 269 270 269 269
288 283 283 284 287 281 282 279 281 287 285 287 289 286 288 287 284 282 281 280 280 281 284 283 284 285 286 286 281 280 281 281 281 281 282 282 283 282 283 283 283 283 281 281 281 279 280 280 278 276 273 272 273 275 277 278 276 274 275 277 276 273 273 274 274 274 275 275 276 275 275 274 274 274 274 273 272 272 271 270 270 269 269 269 269 268
288 287 289 285 288 286 285 287 285 282 285 286 283 282 288 287 284 283 283 282 282 281 279 283 283 282 285 284 283 282 282 282 282 282 284 282 282 283 282 283 283 282 282 281 279 277 279 280 278 275 272 271 272 272 275 275 276 274 275 275 274 274 274 274 273 275 275 275 275 275 274 273 274 273 273 272 272 271 271 269 269 269 267 267 268 268
282 282 282 285 285 285 284 285 284 282 283 284 283 283 283 283 283 283 284 284 283 283 283 285 283 284 284 284 283 281 282 282 281 281 281 281 282 282 281 280 279 278 278 277 275 276 275 273 273 275 275 271 270 272 272 273 275 276 276 273 275 273 274 273 274 274 275 274 274 274 273 273 272 271 272 271 272 273 273 271 269 270 268 267 268 268
283 282 283 282 284 286 283 284 283 283 283 283 284 283 282 284 283 282 283 284 282 282 282 284 285 285 286 285 286 284 282 282 282 280 280 280 281 280 280 280 279 278 278 278 276 275 275 274 275 274 274 275 271 271 272 273 275 277 274 273 274 274 273 273 274 275 274 273 273 272 272 273 272 271 270 270 270 271 271 271 270 270 268 268 268 268
283 285 283 283 283 285 282 281 280 280 282 284 283 283 284 284 283 283 284 283 282 282 283 284 284 284 285 285 284 283 282 281 281 280 280 280 280 280 279 279 278 276 275 275 275 275 275 276 277 275 274 277 275 273 273 273 275 275 270 268 271 271 272 272 273 274 273 272 271 271 271 272 270 270 270 270 270 270 270 270 270 270 270 268 269 268
285 287 281 285 284 282 282 283 282 284 285 285 285 284 285 286 285 284 284 283 283 282 280 281 280 284 285 285 284 283 281 280 281 281 281 280 279 279 279 279 278 278 276 275 274 275 278 277 277 277 276 277 275 273 273 274 274 272 273 270 269 271 272 272 271 270 268 268 268 270 269 270 270 271 270 269 268 270 271 271 270 270 271 271 269 270
284 282 283 283 279 280 284 285 283 283 282 286 286 285 285 285 286 284 283 283 282 281 280 281 279 280 281 282 283 283 282 281 280 280 280 280 280 280 279 278 277 276 275 275 275 275 275 275 277 276 275 276 273 273 274 274 272 270 271 268 267 270 272 271 270 268 270 268 268 268 267 268 268 266 268 268 268 267 267 269 273 272 270 270 273 275
283 283 283 281 282 282 286 284 286 285 285 287 289 287 286 285 285 285 284 284 282 282 281 281 279 278 279 279 280 283 282 281 280 280 280 279 279 280 280 278 277 275 275 274 273 273 274 274 273 273 273 274 272 272 273 272 270 269 268 269 269 270 271 270 271 269 269 268 269 269 268 267 267 267 266 267 267 267 267 267 269 276 277 276 274 275
Wind_Speed
1 4 5 7 9 11 7 9 10 4 5 4 3 3 4 5 5 4 4 4 2 0 6 8 9 8 10 10 11 5 5 7 8 9 10 8 9 10 9 10 9 8 7 4 4 4 4 4 3 2 3 3 3 3 4 5 5 5 5 6 6 5 5 5 5 5 5 6 7 6 5 8 4 5 6 6 6 6 6 6 7 7 6 6 6 6
3 4 8 10 13 8 9 7 2 4 1 1 2 2 4 3 5 4 0 3 4 4 3 2 5 10 12 12 11 1 5 11 14 14 13 12 11 11 12 11 10 6 1 3 3 3 3 3 3 3 3 4 6 4 4 4 4 5 6 6 6 4 4 3 3 4 4 3 3 6 6 6 5 5 5 5 5 6 5 6 7 6 6 6 6 6
3 10 10 14 2 3 1 4 4 5 3 1 3 2 2 6 3 9 5 2 1 1 8 6 8 11 10 10 10 7 11 10 12 14 16 15 13 12 11 10 8 6 7 5 5 4 4 4 5 4 4 4 4 6 5 3 5 5 5 6 5 4 4 4 4 4 6 5 6 5 5 4 6 6 5 6 5 5 7 6 6 6 5 6 6 6
4 6 15 3 5 3 1 1 3 1 0 3 1 1 8 3 1 6 1 1 0 3 3 1 6 10 7 7 13 14 12 9 7 9 12 11 14 15 14 14 14 12 10 12 9 8 6 6 6 5 5 5 5 5 5 5 5 5 5 4 4 5 4 5 5 6 7 8 10 9 8 6 5 6 5 6 6 7 6 7 6 6 5 6 6 5
12 3 1 7 7 8 5 3 5 4 7 4 6 5 3 3 5 7 5 2 2 2 1 5 9 12 8 12 10 13 4 3 9 6 8 9 8 6 5 7 10 15 15 12 9 8 7 8 8 8 7 5 6 6 6 6 5 5 5 5 5 5 5 5 6 7 9 10 10 9 10 8 8 6 5 6 7 5 5 5 6 6 5 5 6 5
11 6 3 5 3 4 4 3 7 8 7 4 5 10 9 6 6 4 3 3 5 4 3 1 6 6 4 7 11 11 3 6 4 6 13 10 6 6 10 12 7 7 8 14 14 13 11 9 8 7 7 7 7 7 5 5 5 6 6 5 6 5 6 7 7 7 7 8 12 10 8 7 5 6 4 5 7 6 5 5 2 5 5 5 5 5
5 1 4 5 6 5 6 6 5 7 8 2 6 9 10 7 4 2 1 3 3 5 2 2 6 11 1 5 6 6 4 11 8 6 11 6 8 9 10 9 11 12 10 5 6 7 9 8 9 9 9 9 8 6 5 6 6 6 7 7 6 6 6 6 7 7 6 6 5 8 10 10 10 9 2 3 4 4 5 5 5 5 5 5 6 5
2 1 5 4 4 5 5 5 5 11 6 4 2 3 5 3 4 5 4 6 5 1 3 1 2 5 16 7 8 9 7 10 10 12 12 8 6 8 7 8 9 11 11 12 11 10 10 10 12 13 10 9 8 6 6 7 6 7 7 7 7 6 6 6 7 6 5 6 6 6 6 6 5 8 9 6 4 3 3 6 5 5 5 5 4 5
6 4 4 4 2 4 8 6 4 9 7 3 0 4 5 6 4 3 3 3 0 2 8 1 1 3 9 4 2 1 4 9 15 16 16 6 6 7 7 8 10 11 12 12 12 13 13 13 11 10 10 7 7 7 8 8 7 7 6 6 6 6 7 7 7 6 4 3 4 7 9 8 5 6 7 6 4 5 3 7 4 5 4 5 5 5
1 4 9 9 8 8 4 2 7 11 5 1 5 8 7 7 6 3 3 3 2 1 8 7 4 4 19 3 4 4 1 9 12 15 7 4 11 10 9 7 8 7 7 7 10 12 11 10 9 8 7 7 7 7 7 7 7 7 7 7 8 8 6 6 6 5 5 5 6 8 7 12 9 6 5 5 7 4 4 6 5 4 5 5 6 5
1 3 3 4 6 4 5 2 3 2 2 7 4 8 6 8 4 3 6 2 3 7 9 10 10 7 11 1 8 8 8 10 8 5 4 3 3 5 8 10 11 11 10 9 8 7 8 6 7 7 10 8 6 6 7 7 7 7 8 8 8 8 6 6 6 6 6 6 5 8 10 12 13 9 9 8 7 5 4 7 5 5 5 4 5 5
1 1 1 1 4 3 4 4 4 1 4 7 2 4 5 3 6 4 5 4 1 9 3 9 13 11 12 4 6 6 2 3 5 4 3 5 6 9 8 7 8 9 10 9 8 8 7 6 6 6 9 9 8 7 7 7 7 8 7 8 8 6 6 6 6 6 6 6 5 5 9 11 12 13 10 11 10 7 7 6 7 5 5 5 5 4
4 4 1 3 4 9 3 6 3 3 1 4 6 7 7 4 5 2 4 3 6 9 1 2 1 3 19 10 3 7 10 8 7 7 6 5 6 7 7 8 8 7 8 10 10 9 9 11 11 10 10 9 9 9 9 9 8 8 8 9 10 8 7 7 7 7 6 6 6 8 7 8 9 10 10 10 10 7 8 7 7 7 7 6 6 4
7 1 1 2 1 5 8 10 3 2 6 6 9 8 7 1 2 5 3 2 7 7 4 1 1 9 2 8 10 20 19 8 6 8 6 5 7 9 10 9 9 9 10 10 10 10 11 11 10 10 10 10 9 10 10 9 9 8 8 9 9 8 8 7 6 6 7 5 7 7 8 9 9 9 9 8 9 8 7 7 8 8 8 8 7 7
4 5 7 8 6 5 10 12 15 7 10 11 3 12 10 9 6 3 7 7 8 4 3 4 3 8 5 5 1 6 5 4 3 6 5 6 6 5 6 7 7 8 8 8 10 11 12 12 11 11 11 10 9 10 10 9 9 8 8 8 8 7 6 8 8 7 7 7 7 7 7 8 6 8 8 7 7 8 8 7 7 6 6 7 6 6
11 8 6 8 1 8 14 2 6 6 2 2 1 5 3 9 7 8 4 2 1 2 3 2 7 4 6 3 6 5 5 6 3 2 1 4 3 5 8 11 11 11 11 10 10 10 10 10 11 10 9 9 9 9 9 10 9 9 9 8 8 10 9 8 8 7 8 7 7 6 7 6 6 5 6 6 5 5 5 7 7 7 6 5 6 4
2 6 1 4 3 6 7 4 3 5 9 5 5 8 6 2 5 1 2 1 1 2 12 5 9 7 8 13 13 15 7 7 1 2 1 3 2 4 9 10 11 12 12 11 11 12 11 9 9 10 10 9 9 9 10 11 11 11 10 9 8 7 6 7 9 9 8 8 8 7 6 6 6 7 8 9 8 7 5 5 5 6 5 5 5 6
8 6 1 3 6 1 0 0 3 4 4 8 5 7 2 2 3 3 6 1 1 6 9 6 12 6 1 14 3 2 6 10 5 7 5 3 4 7 9 11 13 14 14 12 10 8 10 10 11 9 9 10 11 10 9 9 8 8 9 11 10 9 10 7 6 7 8 9 8 8 7 6 7 7 6 6 8 7 7 5 5 5 6 5 5 5
4 6 1 1 1 3 2 3 2 2 2 6 6 5 8 5 3 2 3 9 3 8 7 4 3 11 10 13 2 1 6 11 12 7 5 6 7 10 8 9 8 6 7 9 10 9 10 11 12 12 11 8 7 7 8 7 7 7 7 8 11 12 11 10 8 7 6 8 8 8 8 8 7 5 5 5 5 6 7 8 7 6 6 5 5 6
1 7 3 1 2 1 0 4 11 4 2 2 3 4 1 3 1 7 8 1 3 6 1 9 4 13 7 7 9 12 11 12 8 5 11 13 12 11 10 10 11 12 11 11 11 11 11 10 10 11 11 12 11 10 8 8 7 9 8 9 7 6 7 8 9 9 10 8 8 8 7 7 7 7 8 7 8 8 7 7 7 7 7 6 5 5
3 1 6 0 2 2 4 5 9 12 11 2 4 5 1 1 1 4 1 4 5 4 5 6 12 6 8 7 11 15 12 11 10 12 12 12 12 11 10 11 12 12 12 12 12 11 10 10 9 9 8 8 7 6 7 8 10 9 8 9 9 11 10 10 9 9 9 9 9 10 10 9 8 8 7 8 7 7 7 6 6 6 6 6 5 6
2 3 10 3 0 7 6 3 7 10 12 14 16 14 15 11 6 6 9 2 2 3 7 5 16 3 3 4 9 9 10 10 10 10 12 9 8 11 10 10 11 12 12 11 10 9 9 8 8 7 6 6 8 9 10 9 9 10 11 10 9 9 10 11 10 10 9 8 9 10 10 9 7 8 8 9 8 8 7 7 7 7 6 7 6 6
7 3 5 6 7 9 5 1 1 2 0 2 4 6 9 9 7 7 10 8 1 5 4 3 2 14 4 2 5 6 3 3 2 2 9 5 6 8 10 9 9 10 10 10 10 9 9 9 9 10 11 11 12 11 10 10 11 11 10 9 9 11 11 11 11 9 9 9 9 9 8 9 9 8 9 9 8 8 8 7 6 6 8 7 6 5
7 3 3 3 1 2 3 3 1 0 3 1 1 2 6 14 16 13 7 4 9 3 4 2 6 8 2 0 3 4 4 5 5 4 7 4 3 6 7 7 9 8 6 6 6 7 8 7 7 8 10 10 11 12 14 12 10 9 10 11 10 12 11 10 9 9 9 8 9 9 9 9 8 9 9 10 8 9 8 7 7 6 7 6 6 7
6 5 8 4 1 1 3 2 3 1 1 3 6 10 11 6 5 2 5 2 2 10 10 9 18 7 3 2 2 2 2 4 7 4 3 6 4 5 8 7 5 5 6 8 10 10 8 9 11 13 12 13 12 10 10 11 11 11 11 10 12 11 10 10 9 10 9 9 10 9 10 9 9 10 10 10 8 9 8 8 8 6 7 7 7 6
8 8 11 10 14 13 10 13 17 14 12 4 1 5 6 14 14 7 8 5 9 7 15 9 18 3 2 3 3 3 2 5 5 4 4 6 6 8 8 8 8 7 9 8 8 9 13 13 10 9 11 11 10 11 11 10 10 9 9 9 8 10 10 10 9 10 10 10 11 11 11 10 9 11 11 10 9 9 9 8 8 7 6 7 8 7
4 3 12 16 18 18 18 1 5 12 6 9 13 15 16 13 15 12 6 5 16 4 12 20 20 7 6 3 4 5 1 6 7 4 6 6 5 4 5 7 9 10 9 10 10 8 5 7 13 13 11 10 9 9 9 9 10 9 9 8 7 7 9 10 10 10 11 11 11 11 11 11 11 10 10 9 8 8 8 9 8 8 8 7 8 8
3 5 14 18 18 17 3 3 9 19 17 17 12 15 15 16 16 16 16 18 8 3 17 13 4 14 22 11 9 5 6 5 7 7 7 7 8 9 8 5 5 4 5 6 7 10 14 13 9 10 11 9 9 8 7 7 8 9 9 10 8 7 8 8 11 11 11 11 11 11 12 11 9 9 9 7 7 8 9 8 8 8 6 7 8 8
7 10 12 11 17 13 2 4 10 12 15 14 16 17 18 19 17 21 24 13 12 16 23 4 14 16 24 12 7 9 10 10 10 11 9 4 1 3 5 7 10 11 9 10 12 11 11 12 13 11 10 10 8 10 9 8 8 7 7 7 9 9 10 9 10 11 11 11 12 12 10 8 7 7 7 8 8 9 9 9 8 7 7 7 7 6
4 8 7 11 16 10 6 5 5 9 8 9 14 17 19 20 24 25 22 19 18 18 17 8 9 18 19 3 8 12 13 9 4 1 2 3 6 7 8 10 12 12 13 14 13 12 11 12 10 10 10 9 11 10 10 10 10 10 10 10 9 10 9 10 11 12 12 12 12 10 8 9 8 8 8 9 10 10 9 8 8 8 8 8 7 6
7 11 10 4 9 12 12 5 5 9 7 10 10 14 19 20 22 23 19 16 16 18 22 13 14 28 8 5 9 4 2 2 2 4 7 9 6 7 10 12 12 12 12 11 10 12 13 10 8 8 9 10 11 12 12 12 10 9 10 10 10 11 11 11 12 11 12 13 10 8 8 8 9 9 10 10 8 8 9 9 9 9 8 8 7 8
5 3 3 5 9 13 8 13 10 6 5 7 12 18 20 17 16 14 15 16 15 24 18 11 20 26 5 8 3 4 4 6 9 11 9 8 8 8 11 12 11 9 10 12 13 11 9 9 10 11 13 13 13 13 12 11 11 10 13 11 12 11 10 11 11 11 11 10 9 9 10 10 10 10 10 9 10 9 8 7 8 8 8 8 8 7
9 7 7 9 11 15 6 12 10 4 2 5 18 32 17 14 12 14 17 15 21 21 13 19 24 22 12 5 5 4 8 10 9 9 9 8 6 11 13 13 12 11 12 13 12 12 12 13 13 14 12 10 11 13 14 13 11 14 13 12 12 9 10 11 11 11 10 9 10 10 10 9 11 10 9 9 8 7 7 8 8 8 8 10 7 7
5 8 9 7 10 10 10 13 10 7 11 17 11 6 19 18 18 18 19 21 19 16 18 19 21 16 4 7 10 12 10 11 13 14 14 13 12 10 7 6 9 12 12 11 10 12 13 10 8 9 11 13 14 15 12 12 15 13 10 9 7 10 11 11 10 10 10 10 10 10 10 10 9 10 9 8 8 8 8 8 10 8 6 6 6 8
9 9 9 4 5 8 9 11 10 16 18 8 4 6 18 23 23 24 23 19 20 19 21 20 20 18 10 9 11 11 13 13 11 12 11 7 5 8 13 13 13 13 11 9 8 8 9 11 10 8 8 10 12 10 9 10 9 6 7 8 10 10 10 10 10 9 10 10 9 9 9 10 10 10 8 8 8 8 8 9 7 7 7 8 9 10
10 12 5 4 2 3 7 10 9 14 3 3 3 1 4 12 18 16 17 17 18 22 24 24 26 19 14 9 8 10 11 11 7 5 1 4 11 13 13 12 11 8 9 10 11 9 8 9 11 13 15 10 8 9 10 11 9 9 8 7 10 9 9 10 10 10 9 9 9 10 10 10 10 9 8 9 8 9 10 10 10 10 7 7 6 4
16 8 5 7 5 8 6 13 12 6 6 5 2 3 12 10 9 15 13 19 23 21 20 20 21 18 14 15 12 7 1 1 4 9 4 11 12 9 11 12 11 11 10 9 9 11 11 11 11 11 6 7 9 9 10 7 8 8 7 9 9 9 9 9 10 11 10 9 9 10 10 11 11 10 10 9 10 11 11 10 8 7 6 7 7 8
13 14 9 11 7 9 8 6 3 4 12 17 3 5 7 11 16 15 11 11 10 18 18 16 18 20 18 17 10 3 4 3 11 13 8 9 6 4 0 1 2 3 4 4 3 3 5 5 4 6 9 9 8 8 6 7 9 9 9 9 8 9 9 9 11 10 9 10 10 10 10 10 10 11 10 10 12 12 10 8 5 7 6 10 10 10
6 11 10 14 6 7 8 8 7 11 13 3 4 11 10 6 13 8 5 15 9 10 15 17 20 21 18 15 7 8 6 10 16 12 9 10 5 5 5 3 4 5 6 8 11 10 10 10 10 9 6 6 7 6 7 8 10 9 9 8 9 9 9 11 11 10 11 10 8 8 9 9 9 10 10 11 11 10 10 10 11 8 7 7 6 7
10 8 7 8 8 8 11 11 10 5 7 1 5 2 5 6 12 11 4 13 2 14 15 17 20 21 15 12 10 13 13 13 18 10 7 8 8 7 8 10 8 7 6 5 3 6 8 8 9 6 7 8 7 7 9 9 9 9 9 8 7 9 11 12 11 8 6 5 7 8 8 8 9 9 10 11 9 8 10 7 6 8 8 7 7 6
5 1 7 14 12 13 13 7 3 5 3 4 7 4 7 10 12 10 16 10 7 9 10 16 17 17 15 11 12 11 16 8 2 8 8 10 8 4 2 3 6 8 11 9 8 8 9 6 7 9 8 5 7 8 8 9 9 8 6 7 8 10 13 7 5 6 6 6 7 7 8 8 9 11 10 10 10 9 7 7 8 7 8 8 7 6
6 4 2 6 11 11 11 11 10 4 5 7 2 15 11 9 6 17 6 1 5 5 3 8 14 14 10 15 17 14 5 5 5 5 9 10 11 9 8 9 9 7 5 6 8 8 8 7 7 8 6 4 7 7 8 8 8 6 7 7 10 13 4 5 6 6 6 7 8 8 8 9 8 9 9 8 7 8 8 7 8 8 9 7 7 9
11 8 7 10 5 3 2 9 6 10 4 12 13 2 3 7 6 3 3 1 2 4 5 5 8 6 9 7 3 4 7 5 7 8 9 10 12 12 11 10 10 9 9 7 6 4 8 8 7 6 6 5 6 6 7 8 8 7 6 9 12 5 5 5 6 6 7 7 7 8 9 9 10 9 8 8 9 10 10 8 8 8 8 9 8 9
8 7 3 6 8 8 11 10 8 4 5 13 19 13 13 10 3 4 6 4 1 4 5 4 1 4 5 10 9 5 5 9 5 8 8 7 7 7 6 6 6 7 6 5 5 6 6 8 6 6 3 4 4 5 6 9 8 7 8 12 3 4 4 5 5 6 6 7 8 7 8 8 8 8 7 9 9 9 9 9 8 8 8 8 9 8
10 14 8 11 8 11 7 7 1 3 7 8 1 3 4 5 2 6 4 4 7 3 3 5 6 4 7 9 9 10 5 2 7 7 11 8 8 9 9 8 8 8 7 7 6 4 5 8 8 6 4 3 4 4 5 6 10 7 9 4 4 5 7 6 6 7 7 7 7 8 7 7 8 8 8 8 9 10 9 8 8 9 6 7 8 8
5 1 4 1 5 2 2 2 2 1 2 4 0 1 3 5 2 4 6 5 2 5 6 8 6 8 7 8 10 1 5 7 8 5 5 8 8 5 5 6 5 5 6 6 5 4 5 6 6 7 7 3 3 5 5 5 7 11 6 3 5 5 6 7 7 7 8 7 7 7 7 8 7 7 7 8 8 10 9 10 10 10 8 8 9 10
2 2 1 2 1 5 8 4 3 3 2 2 1 1 1 2 4 3 3 4 6 8 4 5 9 9 10 8 11 11 8 9 10 6 7 7 9 9 9 9 7 8 9 8 6 7 6 6 6 6 6 6 5 5 5 5 6 4 3 5 6 6 6 7 7 7 6 7 6 5 7 8 7 7 6 7 7 7 8 8 8 9 9 10 10 11
4 3 1 1 1 8 3 2 2 4 2 2 3 5 6 3 2 2 1 3 6 5 7 8 7 5 6 7 7 13 12 9 11 10 9 9 9 9 8 8 8 6 3 4 6 5 5 5 6 5 5 6 6 6 6 6 7 4 3 4 5 6 7 6 7 7 6 6 5 6 6 7 7 8 7 7 8 8 7 7 8 10 12 13 13 12
1 5 5 3 4 1 3 3 3 1 1 3 6 6 3 2 5 3 3 5 5 8 7 5 1 7 9 9 7 10 10 8 9 12 12 7 6 6 7 7 7 7 8 7 6 7 9 7 6 7 7 7 4 6 6 7 5 4 5 4 5 6 7 6 5 5 4 5 5 5 4 5 5 6 6 6 6 7 7 8 9 10 10 7 7 10
3 5 1 3 1 3 11 8 6 5 3 7 7 6 3 4 1 5 3 4 4 6 6 7 3 2 1 4 9 10 12 9 7 8 10 9 9 8 6 6 5 7 6 4 5 6 5 6 7 7 8 5 5 6 7 6 4 4 4 4 4 6 6 5 5 4 4 4 4 4 5 5 5 4 5 6 6 6 7 7 9 10 10 9 9 15
6 6 7 6 7 8 6 3 8 1 2 3 8 7 6 5 4 5 4 5 4 4 6 9 5 3 3 3 4 9 10 12 11 8 8 7 8 8 8 9 8 5 6 6 6 5 6 5 4 5 5 6 5 6 6 5 4 4 4 5 5 6 5 5 5 4 4 5 6 6 6 6 6 6 7 7 7 7 8 8 8 14 18 14 9 12
Wind_Direction
110 149 177 192 216 213 206 196 206 187 141 113 95 117 205 205 281 285 273 266 302 12 235 226 235 244 255 250 259 208 198 235 245 242 233 221 208 207 208 206 201 200 198 202 192 192 196 199 197 212 148 137 125 118 129 129 138 139 135 131 126 127 121 122 126 117 116 116 109 81 80 97 56 62 65 58 50 50 49 51 56 55 55 59 70 75
73 186 233 219 220 204 199 205 147 96 105 150 124 175 256 156 243 235 247 359 332 170 291 267 255 253 250 260 261 211 169 229 226 230 236 226 215 212 204 202 200 190 138 146 159 206 213 195 180 172 159 152 144 154 145 153 154 142 137 128 131 135 126 106 108 116 98 78 87 114 110 103 87 74 63 66 51 54 49 52 54 56 56 63 67 71
180 212 223 225 154 123 116 177 201 187 178 76 186 203 268 267 246 281 256 304 274 104 258 279 268 258 253 253 268 238 218 232 224 216 223 216 215 214 204 197 181 170 188 173 188 188 191 185 168 169 170 167 157 153 155 155 148 139 135 138 145 134 124 104 87 102 101 93 83 91 97 82 95 65 73 79 72 64 69 48 45 46 52 67 68 69
251 276 243 199 132 137 81 99 150 137 53 174 117 158 227 232 134 286 300 355 349 165 260 340 302 275 271 263 254 256 229 235 236 222 232 217 216 210 200 188 188 188 173 185 183 183 187 181 170 173 173 163 147 149 147 158 152 138 142 143 131 125 114 108 100 100 93 91 91 80 85 67 62 104 87 80 72 71 51 51 45 35 50 58 73 66
207 200 320 155 169 168 181 135 130 159 237 237 197 200 212 191 234 187 248 314 313 338 39 306 292 280 232 251 258 252 257 249 257 244 253 243 233 217 196 200 191 183 179 174 175 183 181 180 178 179 175 162 163 168 167 164 162 148 148 139 130 126 120 111 114 116 119 110 93 96 89 88 91 72 77 85 60 36 56 65 49 39 37 55 69 66
264 247 85 91 141 168 146 153 194 158 228 269 226 198 212 209 223 267 333 360 4 326 349 55 312 277 274 250 250 268 331 281 254 227 243 234 217 186 191 196 175 188 182 175 178 180 179 177 169 178 176 174 173 175 172 160 149 142 142 133 131 122 123 128 128 135 134 137 133 130 120 115 104 104 101 103 118 112 81 80 53 49 40 50 65 62
220 190 148 162 145 173 188 195 223 162 203 204 270 196 209 211 212 187 180 85 297 246 296 26 210 283 292 248 231 253 245 257 261 229 254 236 215 202 201 181 181 176 172 180 174 169 171 180 173 181 184 182 179 175 156 146 143 143 147 149 144 142 136 136 142 150 143 141 138 140 143 143 143 130 63 42 38 86 91 82 72 65 50 44 73 67
131 204 89 87 115 150 175 212 237 171 147 229 253 161 171 161 183 205 162 186 237 262 296 57 116 275 294 254 214 223 233 252 278 269 249 227 214 210 199 184 180 178 178 176 178 177 182 181 180 184 184 181 182 161 153 150 145 151 153 151 149 143 142 147 153 160 163 154 145 119 108 109 123 136 135 124 99 65 92 88 77 74 63 55 56 80
157 182 155 147 138 151 192 206 180 158 151 219 244 140 155 180 191 130 144 177 250 24 285 238 16 307 252 282 329 86 231 268 256 256 257 215 214 207 197 189 187 183 181 174 172 181 183 185 186 181 180 180 167 164 161 160 160 152 153 148 141 146 147 154 162 160 149 136 134 131 127 107 65 96 113 113 99 103 95 96 76 80 75 70 59 61
313 177 202 172 161 203 216 242 161 160 188 252 120 86 81 76 66 95 88 100 323 30 256 185 178 215 277 196 183 352 181 252 247 249 277 216 202 199 196 190 182 175 177 185 183 180 184 185 182 177 166 167 175 169 160 156 152 156 153 152 153 155 157 157 153 141 126 129 131 129 128 125 122 114 105 116 119 122 122 107 100 90 83 74 70 58
228 295 169 140 202 187 125 50 162 193 140 132 87 71 30 43 28 21 62 76 39 260 250 181 195 158 281 278 181 141 208 210 248 305 290 303 228 204 199 184 179 179 178 180 182 186 183 178 172 169 173 175 168 166 159 157 159 158 158 159 166 165 155 156 152 142 144 141 147 140 143 139 137 142 139 134 127 132 127 121 113 101 90 71 77 69
358 5 152 255 100 97 104 78 25 121 146 135 103 123 64 345 13 33 344 34 147 263 203 192 184 178 218 288 275 246 281 229 197 220 255 255 218 203 195 194 186 177 176 173 174 179 168 159 178 180 179 175 171 165 164 164 159 158 163 161 161 159 160 155 148 141 148 149 145 144 145 145 147 148 153 149 149 158 145 139 128 117 101 86 78 79
271 221 244 329 207 133 116 87 9 45 112 85 102 97 136 246 36 303 24 253 192 244 321 6 130 351 239 238 248 268 268 260 216 218 229 231 233 207 195 187 180 177 173 177 178 172 175 178 179 186 182 173 174 178 172 168 165 163 166 167 165 169 163 160 155 153 153 147 147 146 144 144 147 148 151 150 148 159 149 147 139 140 132 134 118 122
269 283 325 258 34 235 147 158 176 61 214 139 154 154 137 107 212 257 264 276 308 297 274 282 29 252 319 298 229 252 252 250 228 223 233 218 218 202 192 178 173 179 184 184 178 179 181 181 182 185 180 179 177 177 176 171 170 170 170 171 173 170 164 154 151 151 149 153 149 148 149 153 153 152 153 157 153 159 155 156 154 156 155 155 153 149
235 310 239 141 238 175 184 195 184 163 160 200 117 163 183 159 158 210 199 215 226 227 296 274 129 233 124 242 253 253 278 285 261 254 250 243 237 212 177 163 162 173 188 183 184 186 184 184 180 182 183 181 180 179 176 174 174 170 171 172 172 161 172 160 159 154 155 151 149 148 150 154 155 153 152 155 156 156 156 161 153 155 156 149 156 148
214 236 267 206 307 161 188 214 107 89 99 216 172 54 104 214 149 228 196 181 260 324 326 206 210 196 194 258 284 233 285 275 277 266 222 240 202 154 152 169 180 185 186 187 188 189 191 185 180 181 183 182 180 182 177 176 175 175 175 174 175 169 170 171 159 164 159 158 150 147 151 157 150 142 136 139 145 153 156 157 156 156 153 147 135 126
47 268 281 327 61 173 187 135 183 148 198 203 114 204 208 158 128 84 30 89 117 33 252 139 272 276 303 279 252 259 241 264 321 263 254 231 227 182 179 181 184 188 188 189 191 191 187 182 187 185 182 180 180 182 184 181 178 177 170 171 169 168 170 174 172 162 160 154 150 154 153 154 151 153 158 161 161 157 150 147 148 145 145 134 131 131
157 236 298 110 216 295 133 187 104 26 141 101 188 226 129 104 110 151 236 344 111 234 272 148 240 278 77 277 3 350 259 257 250 235 228 224 203 202 199 190 188 190 193 193 193 189 186 184 183 186 188 186 185 182 180 183 178 176 172 171 167 168 173 181 169 162 160 157 157 156 158 161 162 162 160 155 154 149 143 142 137 131 137 147 140 131
132 286 271 309 63 311 358 111 37 352 26 149 192 191 136 235 243 275 91 245 206 236 276 272 250 261 194 249 59 256 225 245 240 224 226 228 212 216 209 205 199 186 181 187 191 187 188 189 189 186 187 185 182 181 181 175 173 174 174 177 173 174 177 172 169 165 164 165 161 165 164 163 159 154 148 145 145 149 151 154 157 155 142 127 132 133
111 198 293 345 134 288 25 141 198 186 353 37 74 125 40 99 169 141 199 183 113 263 53 278 61 258 172 226 191 235 219 225 234 206 226 221 207 205 205 196 191 190 192 191 193 196 192 190 188 184 180 182 183 181 183 178 176 181 178 174 178 169 164 163 168 168 169 174 163 162 158 162 160 157 157 157 158 163 165 163 156 148 146 151 137 137
209 143 257 320 313 106 196 195 199 162 177 165 144 186 170 52 255 112 351 153 179 191 202 283 290 264 253 210 189 217 220 220 208 217 226 220 209 204 206 195 191 193 192 193 194 191 186 185 184 184 184 180 174 177 179 184 186 185 179 182 177 170 169 174 177 174 176 167 170 162 168 166 162 161 155 157 168 163 163 159 153 152 146 132 149 149
156 168 209 136 193 222 251 246 214 199 194 182 176 193 183 150 149 169 241 74 139 159 237 148 256 244 267 180 207 218 224 217 220 217 228 224 200 198 206 204 192 192 200 193 191 183 181 180 180 178 176 176 176 184 188 190 184 188 190 184 175 172 176 174 177 180 174 176 166 171 168 168 164 160 160 162 168 166 164 163 158 152 146 158 156 156
168 130 102 195 212 203 219 282 283 238 158 198 185 210 179 184 170 183 214 211 79 245 97 187 319 272 223 208 232 237 274 288 280 225 255 243 208 208 209 206 203 201 191 187 181 181 181 181 179 180 184 187 189 188 189 190 194 193 187 180 181 177 184 180 177 173 168 169 170 175 169 163 167 162 164 165 170 170 166 162 155 155 159 162 158 159
102 131 170 277 321 313 306 305 352 173 117 33 290 122 138 199 195 204 203 159 188 177 188 254 256 262 312 284 279 264 265 266 275 243 253 256 214 207 212 210 203 192 187 172 174 173 174 169 165 171 187 189 193 194 195 196 196 192 188 186 179 186 178 175 171 170 168 169 173 170 166 172 165 165 168 174 176 171 168 161 161 163 163 158 155 158
158 227 170 112 355 326 322 326 285 343 89 200 187 203 206 198 185 130 89 81 168 218 173 160 243 228 268 357 312 334 333 299 275 265 203 245 221 206 207 212 208 194 174 181 181 174 163 169 180 190 192 196 197 197 195 197 198 193 194 188 187 185 176 171 167 167 170 169 171 174 175 174 170 172 177 178 174 173 164 164 163 166 165 156 162 162
182 159 153 196 208 210 198 201 206 198 196 186 269 186 188 193 187 145 218 174 225 202 163 207 245 234 288 310 312 309 340 296 262 247 265 228 215 199 210 198 192 190 196 181 171 168 185 189 186 189 196 196 197 196 197 199 196 195 195 201 191 178 172 175 166 170 167 173 174 178 181 177 175 181 181 177 174 172 168 165 168 167 167 166 165 162
174 179 193 199 210 220 226 215 69 102 91 192 213 186 202 203 198 196 210 187 218 118 191 224 233 248 265 240 261 272 277 240 266 277 246 248 244 242 224 205 196 195 186 184 184 184 165 184 197 198 195 196 193 194 199 199 196 194 191 191 193 189 177 172 168 170 174 178 180 179 186 182 185 182 180 178 172 166 168 171 169 168 172 172 169 168
106 187 212 216 221 231 156 170 167 151 183 205 181 200 198 194 193 192 201 217 114 116 250 229 181 246 250 223 231 247 265 266 259 260 262 249 230 214 210 203 175 167 178 171 178 187 195 198 193 192 194 189 190 188 199 202 202 195 190 189 183 184 183 177 171 174 179 178 184 188 190 188 181 179 177 169 166 173 175 169 168 172 166 164 172 175
168 209 217 206 231 222 135 167 179 171 185 194 197 197 194 200 188 200 216 205 158 203 235 160 186 223 247 225 209 204 219 221 221 226 228 230 214 172 172 184 193 194 185 188 200 197 193 194 196 191 187 190 178 188 194 195 197 190 187 187 186 183 191 179 175 179 180 182 189 194 187 177 175 169 166 167 171 175 177 174 170 165 165 173 176 174
152 231 208 186 225 220 226 179 194 183 197 200 204 205 201 193 200 205 212 206 204 228 242 225 228 241 243 190 185 215 218 218 219 176 128 186 218 201 196 204 204 198 190 198 200 198 199 200 189 185 181 182 189 190 193 196 196 193 190 193 186 186 187 173 188 182 184 188 194 186 176 173 170 170 168 173 180 181 176 172 169 168 171 178 176 167
160 220 171 154 206 230 213 182 190 203 176 206 222 216 209 203 204 206 210 212 218 248 241 245 261 261 250 162 221 212 196 102 141 215 217 224 213 201 208 212 210 204 203 199 192 197 199 191 179 172 183 191 191 196 197 201 195 187 194 194 187 191 187 181 189 190 187 193 188 177 167 167 174 170 180 183 177 177 176 175 171 173 175 175 172 169
168 279 93 139 207 237 194 189 198 191 204 212 234 229 214 195 203 204 212 209 193 224 232 235 248 251 213 199 205 137 158 184 212 223 227 231 213 201 209 217 213 208 199 196 197 194 185 180 180 185 193 196 196 196 197 195 190 187 201 191 191 192 179 188 192 191 194 191 178 173 174 176 174 179 184 176 183 180 178 170 171 177 178 173 172 172
190 166 165 177 208 230 191 175 183 154 192 290 245 232 198 198 190 202 216 204 206 212 213 221 237 243 243 149 188 220 205 218 225 225 231 240 217 204 211 213 208 201 196 199 197 187 181 185 190 195 197 192 197 199 203 192 184 200 197 190 196 172 180 190 192 193 192 187 181 181 179 175 179 182 180 185 180 173 171 176 178 180 178 184 177 158
167 183 201 175 211 222 164 171 146 174 212 224 254 145 183 191 193 202 213 212 214 200 220 222 235 243 121 161 189 215 206 220 214 223 208 208 206 204 211 211 212 209 206 200 190 187 189 185 189 193 196 199 201 202 196 188 196 201 190 186 167 177 187 187 194 193 194 187 187 182 177 178 178 183 185 177 173 172 177 180 191 188 179 162 161 177
194 199 210 183 205 210 153 138 162 206 222 226 350 189 169 192 193 206 221 213 215 217 231 242 247 250 215 195 204 208 213 224 222 220 219 210 166 181 195 203 202 200 200 185 185 192 189 188 187 189 192 205 202 189 175 193 199 174 167 172 175 185 184 191 192 195 193 191 186 176 177 179 181 184 179 176 173 173 182 190 190 182 183 179 184 184
190 197 164 224 158 57 155 167 205 217 242 336 10 345 213 176 192 199 233 235 223 217 218 229 238 240 240 227 228 221 216 231 245 258 213 168 179 184 188 202 205 186 181 190 189 194 185 185 189 190 203 196 172 180 183 192 176 172 181 166 179 181 186 185 192 198 193 191 184 181 181 178 182 183 178 174 175 180 190 193 191 190 183 180 186 186
184 187 176 212 186 199 196 199 220 29 330 246 170 218 143 160 150 176 209 238 224 222 217 227 239 243 244 244 235 231 262 34 275 267 194 187 198 199 189 188 173 187 190 193 188 194 192 188 190 196 173 169 179 174 187 168 163 169 158 170 182 177 181 184 196 200 195 190 183 183 181 183 183 184 180 179 181 191 195 191 192 190 172 181 190 188
179 187 195 196 215 199 188 214 238 255 241 236 177 182 176 173 173 180 185 261 234 213 215 210 229 235 236 239 232 162 102 201 261 249 210 213 198 149 49 103 151 150 146 147 126 125 154 169 164 167 174 170 176 178 152 153 158 160 168 176 171 172 184 189 204 198 189 192 188 186 183 184 182 184 185 181 192 196 197 192 190 189 179 188 189 197
216 209 196 199 191 178 213 218 203 216 238 226 193 177 186 157 157 128 157 246 250 164 197 193 217 229 225 224 198 129 138 214 240 236 186 186 158 160 144 119 126 150 160 165 164 168 173 175 173 163 145 145 166 164 151 154 156 160 174 172 174 178 185 201 204 192 195 196 183 178 181 182 184 186 184 191 198 192 192 192 194 188 179 196 194 206
195 190 166 219 216 203 201 212 222 208 248 238 171 208 185 129 114 118 163 250 204 162 186 183 207 221 222 211 163 175 190 220 234 229 175 148 156 170 159 154 148 146 165 168 175 159 149 136 113 120 145 167 169 149 151 150 156 166 170 176 163 181 200 207 204 194 182 168 172 177 177 179 183 188 187 196 195 191 199 187 171 179 184 194 194 195
190 245 206 206 207 215 214 232 295 275 255 177 176 168 151 148 132 158 216 234 174 181 176 179 202 211 211 188 165 190 215 219 167 140 136 125 110 107 90 110 138 150 154 161 154 134 127 134 140 147 155 148 141 144 144 146 151 165 164 159 172 201 213 199 160 165 173 166 166 173 180 181 186 190 196 193 194 191 186 178 185 176 180 189 189 188
212 196 230 208 220 211 213 219 227 272 232 152 225 155 161 118 199 214 222 88 156 186 210 194 202 212 193 183 192 203 138 119 108 106 133 151 148 147 144 147 145 124 100 105 120 128 121 104 94 93 84 103 130 139 143 146 149 152 153 165 198 216 173 150 166 156 159 170 177 180 181 186 193 192 192 186 171 175 189 191 182 186 186 183 185 195
184 181 191 203 202 246 200 230 213 228 226 138 126 87 280 192 237 177 145 10 155 184 161 200 198 205 170 184 138 107 119 111 132 139 133 142 144 150 153 146 127 123 123 115 96 81 112 107 106 110 122 132 138 143 150 142 146 154 162 186 218 183 156 161 154 161 169 176 181 186 189 190 188 189 184 183 184 183 192 183 185 189 181 184 191 199
162 194 175 220 181 210 203 215 212 217 107 160 147 181 198 201 190 161 126 117 145 167 168 145 163 169 164 146 136 131 135 126 103 121 108 106 112 108 107 105 101 102 93 71 100 118 108 106 110 109 103 123 137 144 150 148 145 161 174 218 184 146 148 151 162 160 174 185 192 189 192 191 190 191 186 183 179 187 188 187 188 186 190 188 191 198
185 201 178 211 168 201 212 222 206 249 177 196 79 312 177 170 187 168 142 149 141 217 192 132 147 129 145 140 139 147 134 154 140 145 138 149 140 142 141 150 144 142 132 127 122 119 116 134 135 125 113 124 146 155 156 156 153 162 199 220 147 168 160 162 159 170 186 192 191 193 190 183 189 190 189 184 178 186 192 189 177 191 196 182 198 202
358 286 7 138 239 53 359 173 120 14 199 226 312 265 146 140 167 116 141 115 189 166 176 154 164 145 143 143 122 99 138 140 132 155 124 138 137 141 121 110 96 93 108 105 108 122 121 112 120 134 141 159 177 171 175 178 155 173 209 155 160 156 160 157 165 181 195 191 192 191 176 184 195 194 191 187 190 195 193 187 187 195 190 191 204 206
287 37 29 150 301 168 241 154 120 175 154 258 165 53 318 145 165 175 155 143 139 134 116 138 156 157 153 156 150 153 160 166 154 142 139 140 153 155 159 151 146 149 153 153 153 135 121 131 132 151 156 170 190 184 189 189 210 183 125 147 147 151 152 163 173 185 186 194 189 178 180 189 193 191 189 192 196 198 195 189 190 195 196 199 204 210
284 162 48 275 256 205 264 349 308 299 265 247 209 168 169 167 108 123 122 116 117 118 122 141 133 132 144 151 168 149 160 169 149 147 156 165 164 164 159 154 147 139 124 122 142 133 124 143 158 170 174 198 187 181 186 201 211 191 128 131 144 143 147 161 178 185 195 187 180 185 188 198 188 184 194 200 193 197 203 204 195 199 206 202 205 206
204 118 200 195 204 327 332 277 277 7 11 278 268 270 285 196 145 92 84 103 119 106 99 101 67 158 168 159 153 143 145 175 166 158 159 163 154 158 170 156 158 151 146 146 164 162 167 172 173 185 186 206 172 173 187 210 206 182 170 152 145 146 147 166 179 188 188 176 171 194 186 194 192 200 198 202 208 222 212 201 203 212 227 228 202 208
99 210 199 103 123 221 215 212 147 134 206 224 245 253 265 268 192 123 104 108 123 116 127 128 75 58 82 146 151 150 154 168 175 164 163 168 172 172 164 158 144 145 159 162 154 177 171 176 178 176 198 203 162 179 198 210 192 177 175 153 149 148 152 161 170 189 204 179 185 187 182 199 204 200 199 199 207 215 249 246 220 216 218 227 208 218
187 196 152 173 197 229 231 174 188 113 13 217 196 213 224 218 175 141 178 179 196 159 153 142 128 125 162 181 187 155 162 168 177 172 160 167 182 182 170 162 157 157 168 157 152 177 188 184 172 176 205 208 171 189 201 200 179 176 180 166 164 161 162 159 172 191 198 183 206 196 192 192 200 201 200 202 200 206 217 237 247 236 232 232 221 226